User: anonymous   Login
Location: Bishopstone
(51.0167°N, 1.9000°W)
Time: 14:16:17
(UTC+00:00)
Language:

Oscar 11 - Orbit

View from above orbital plane
View from above orbital plane
View from above satellite
View from above satellite

Ground track
Ground track

The orbit data is extracted from the following two-line orbital elements,

1 14781U 84021B   20020.93294304 +.00000056 +00000-0 +12951-4 0  9997
2 14781 097.5974 040.2379 0007810 339.2021 020.8875 14.83136316909818
Epoch (UTC): 20 January 2020 22:23:26
Eccentricity: 0.0007810
inclination: 97.5974°
perigee height: 614 km
apogee height: 625 km
right ascension of ascending node: 40.2379°
argument of perigee: 339.2021°
revolutions per day: 14.83136316
mean anomaly at epoch: 20.8875°
orbit number at epoch: 90981

The dashed part of the orbit path shows where the satellite is in the earth's shadow,  

DLR